Weather in San Luis Potosí

Mexico     22˚08′25″N   100˚57′37″W
temp.,
°C
wind,
m/s
gust,
m/s
humid.,
%
clouds,
%
prec.,
mm/h
press.,
hPa
HPBL,
m
16 january, sat
sat1600:00+9˚ene226666 0.0 102175
03:00+7˚ene12740 0.0 102167
06:00+5˚n11792 0.0 102276
09:00+9˚wnw015583 0.0 1022101
12:00+16˚ene212858 0.0 1019539
15:00+19˚nne231989 0.0 10131301
18:00+17˚ene333094 0.0 1014201
21:00+13˚se124583 0.0 101766
17 january, sun
sun1700:00+12˚nw124489 0.0 101828
03:00+12˚w1247100 0.0 101631
06:00+11˚wsw245391 0.0 1017112
09:00+13˚wsw234574 0.0 1019121
12:00+19˚nnw451868 0.0 10171295
15:00+21˚n33140 0.0 10132117
18:00+19˚nne44170 0.0 1014708
21:00+13˚ese23500 0.0 1019108
18 january, mon
mon1800:00+10˚e23710 0.0 102181
03:00+8˚ne12875 0.0 101979
06:00+7˚e119114 0.0 102079
09:00+10˚ene107563 0.0 1021136
12:00+18˚ese233238 0.0 1017730
15:00+22˚sse14160 0.0 10122440
18:00+19˚ne35320 0.0 1012283
21:00+14˚ese23562 0.0 1016115
19 january, tue
tue1900:00+12˚sse23636 0.0 101888
03:00+12˚nw016285 0.0 101826
06:00+10˚nne017174 0.0 101841
09:00+14˚sse115759 0.0 1020132
12:00+20˚s133941 0.0 10171379
15:00+23˚sse35295 0.0 10132374
18:00+19˚e685047 0.0 1014509
21:00+16˚e356099 0.0 1018389
20 january, wed
wed2000:00+14˚e4581100 0.0 1019234
03:00+13˚e358298 0.0 1020519
06:00+13˚e348399 0.1 1020432
09:00+13˚e4680100 0.1 1023565
12:00+17˚ese685899 0.1 10221187
15:00+18˚e7957100 0.1 10181266
18:00+15˚e6873100 0.1 1018873
21:00+15˚e4879100 0.1 1021723